ZUFUS FAPE-FAOR

Flight info

Callsign ZUFUS
Flight time N/A
Altitude 10000
Route PEV DCT ITKIT Z5 UNPOM UNPOM1B
Aircraft DA40/L-SBDGRY/S

Departure

Time 2026-04-27 13:35
Airport Chief Dawid Stuurman International Airport (FAPE)

Arrival

Time N/A
Airport O.R. Tambo International Airport (FAOR)
Time Latitude Longitude Altitude Speed Heading
2026-04-27 13:20 -33.98581 25.60899 206 ft 0 kts 331°
2026-04-27 13:26 -33.98590 25.60901 211 ft 2 kts 24°
2026-04-27 13:26 -33.98595 25.60897 209 ft 0 kts 52°
2026-04-27 13:31 -33.98592 25.60902 211 ft 2 kts 65°
2026-04-27 13:31 -33.98618 25.60895 208 ft 10 kts 241°
2026-04-27 13:32 -33.98673 25.60911 207 ft 11 kts 105°
2026-04-27 13:32 -33.98615 25.61042 206 ft 25 kts 54°
2026-04-27 13:32 -33.98525 25.61219 209 ft 24 kts 59°
2026-04-27 13:32 -33.98440 25.61391 208 ft 23 kts 66°
2026-04-27 13:33 -33.98370 25.61558 204 ft 21 kts 55°
2026-04-27 13:33 -33.98298 25.61696 205 ft 19 kts 57°
2026-04-27 13:33 -33.98232 25.61826 205 ft 16 kts 68°
2026-04-27 13:33 -33.98286 25.61920 207 ft 11 kts 146°
2026-04-27 13:34 -33.98294 25.61926 211 ft 0 kts 153°
2026-04-27 13:34 -33.98341 25.61959 209 ft 11 kts 162°
2026-04-27 13:34 -33.98423 25.61860 206 ft 35 kts 238°
2026-04-27 13:34 -33.98616 25.61515 319 ft 55 kts 239°
2026-04-27 13:35 -33.98853 25.61151 544 ft 55 kts 249°
2026-04-27 13:35 -33.99044 25.60748 752 ft 58 kts 234°
2026-04-27 13:35 -33.99320 25.60414 960 ft 55 kts 236°
2026-04-27 13:35 -33.99591 25.60089 1160 ft 53 kts 237°
2026-04-27 13:36 -33.99831 25.59793 1350 ft 46 kts 236°
2026-04-27 13:36 -34.00054 25.59526 1398 ft 63 kts 224°
2026-04-27 13:36 -34.00295 25.59087 1682 ft 48 kts 245°